Terug naar catalogus

STARLINK-4659

ActiefCommunicatieVLEO
NORAD 54841·PAYLOAD·🇺🇸 United States

Gelanceerd Dec 28, 2022 vanaf Cape Canaveral Space Force Station

Loading…

Volgende Passages (komende 24 uur)

TLE

VersSource: CelesTrak SupGP

Epoch: Sep 14, 2026, 20:38 UTC

1 54841C 22177X   26257.86020833 -.00023342  00000+0 -84550-3 0  2570
2 54841  43.0024 144.5810 0001403 262.1531  21.6350 15.27588256    15

Volg STARLINK-4659 in realtime met AllMySat

Download on the App Store